Regional Weather Roundup
Issued by NWS

Home | Current Version | Previous Version | Text Only | Print | Product List | Glossary Off
Versions: 1 2 3 4 5 6 7 8 9 10 11 12 13 14 15 16 17 18 19 20 21 22 23 24 25 26 27 28 29 30 31 32 33 34 35 36 37 38 39 40 41 42 43 44 45 46 47 48 49 50

000
ASUS43 KFSD 310802
RWRSD

WEATHER ROUNDUP FOR SOUTH DAKOTA
NATIONAL WEATHER SERVICE SIOUX FALLS SD
300 AM CDT FRI JUL 31 2015

NOTE: "FAIR" INDICATES FEW OR NO CLOUDS BELOW 12,000 FEET WITH NO
SIGNIFICANT WEATHER AND/OR OBSTRUCTIONS TO VISIBILITY.


SDZ001>005-009-010-012>017-310900-
NORTHWEST AND NORTH CENTRAL SOUTH DAKOTA

CITY           SKY/WX    TMP DP  RH WIND       PRES   REMARKS
BUFFALO          N/A     64  47  53 NW3       30.17F
FAITH            N/A     65  50  58 SE9       30.19F
MOBRIDGE       CLEAR     57  54  89 CALM      30.15S
$$

SDZ012>016-024>037-041>051-057-063-072>074-310900-
SOUTHWEST AND SOUTH CENTRAL SOUTH DAKOTA

CITY           SKY/WX    TMP DP  RH WIND       PRES   REMARKS
RAPID CTY ARPT CLEAR     58  51  78 N7        30.23R
PIERRE         CLEAR     62  53  72 NE8       30.14S
CUSTER         CLEAR     53  43  68 NW6       30.37F
ELLSWORTH AFB  CLEAR     67  46  47 W2        30.23R
PHILIP         CLEAR     58  53  84 SW3       30.18R
PINE RIDGE     CLEAR     56  48  74 CALM      30.22F
WINNER         FAIR      65  52  62 N6        30.16S
$$

SDZ004>011-016>023-039-040-310900-
NORTHEAST SOUTH DAKOTA

CITY           SKY/WX    TMP DP  RH WIND       PRES   REMARKS
ABERDEEN       CLEAR     54  51  90 W5        30.14R
WATERTOWN      PTCLDY    62  54  74 CALM      30.14S
BROOKINGS      CLEAR     63  57  82 CALM      30.16S
SISSETON         N/A     62  52  69 W7        30.10R
$$

SDZ017-020-022-023-036>040-048>070-310900-
SOUTHEAST SOUTH DAKOTA

CITY           SKY/WX    TMP DP  RH WIND       PRES   REMARKS
SIOUX FALLS    CLEAR     64  59  83 CALM      30.14S
HURON          CLEAR     63  60  90 CALM      30.12F
MITCHELL       CLEAR     64  59  83 E3        30.14S
YANKTON          N/A    N/A N/A N/A MISG        N/A
$$

ABBREVIATIONS USED IN REMARKS
   TC - TEMPERATURE IN CELSIUS
  WCI - WIND CHILL INDEX
   HX - HEAT INDEX
  VSB - VISIBILITY



USA.gov is the U.S. government's official web portal to all federal, state and local government web resources and services.